Flag for Brazil Weather past 2 weeks in Belo Horizonte, Minas Gerais, Brazil

Now
59 °F

Clear.


Feels Like: 60 °F
Forecast: 53 / 81 °F
Wind: 3 mph from South

Location: Belo Horizonte Airport

Current Time: Aug 4, 2015 at 4:57:21 AM

Latest Report: Aug 4, 2015 at 4:00 AM


Visibility: 10 mi

Pressure: 30.15 "Hg (27.23 "Hg at 860m altitude)

Humidity: 77%

Dew point: 52 °F

Location of Belo HorizonteLocation

Historic Weather in Belo Horizonte — Graph

°F

Belo Horizonte temperature yesterday

Maximum temperature yesterday: 79 °F (at 3:00 PM)
Minimum temperature yesterday: 54 °F (at 6:00 AM)
Average temperature yesterday: 66 °F

Past Weeks' High & Low Weather Summary

 TemperatureHumidityPressure
High81 °F (Jul 26, 3:00 PM)100% (Jul 24, 5:00 AM)30.33 "Hg (Jul 24, 5:00 AM)
Low52 °F (Jul 21, 6:00 AM)34% (Aug 3, 2:00 PM)30.07 "Hg (Jul 26, 3:00 PM)
Average66 °F68%30.19 "Hg
* Reported Jul 20 3:00 AM — Aug 4 3:00 AM, Belo Horizonte, Weather by CustomWeather, © 2015

Note: Actual official high and low records may vary slightly from our data, if they occured in-between our weather recording intervals... More about our weather records

Advertising

Belo Horizonte weather history for previous 24 hours

 ConditionsComfort  
Time TempWeatherWind HumidityBarometerVisibility
3:00 AM
Tue, Aug 4
59 °FClear.5 mph77%30.18 "Hg10 mi
2:00 AM61 °FClear.3 mph72%30.18 "Hg10 mi
1:00 AM61 °FClear.5 mph72%30.18 "Hg10 mi
12:00 AM61 °FClear.2 mph68%30.21 "Hg10 mi
11:00 PM
Mon, Aug 3
63 °FClear.2 mph64%30.21 "Hg10 mi
10:00 PM64 °FClear.3 mph64%30.21 "Hg10 mi
9:00 PM66 °FClear.5 mph56%30.18 "Hg10 mi
8:00 PM70 °FClear.1 mph46%30.18 "Hg10 mi
7:00 PM73 °FClear.7 mph38%30.15 "Hg10 mi
6:00 PM75 °FClear.7 mph39%30.15 "Hg10 mi
5:00 PM79 °FSunny.5 mph34%30.15 "Hg10 mi
4:00 PM79 °FSunny.5 mph34%30.12 "Hg10 mi
3:00 PM79 °FSunny.2 mph34%30.15 "Hg10 mi
2:00 PM77 °FSunny.7 mph34%30.15 "Hg10 mi
1:00 PM77 °FSunny.3 mph39%30.18 "Hg10 mi
12:00 PM75 °FSunny.2 mph41%30.21 "Hg10 mi
11:00 AM72 °FSunny.6 mph47%30.24 "Hg10 mi
10:00 AM68 °FSunny.6 mph56%30.27 "Hg10 mi
9:00 AM64 °FSunny.6 mph64%30.24 "Hg10 mi
8:00 AM59 °FSunny.3 mph77%30.21 "Hg10 mi
7:00 AM54 °FSunny.2 mph94%30.18 "Hg10 mi
6:00 AM54 °FClear.2 mph94%30.18 "Hg10 mi
5:00 AM55 °FClear.2 mph88%30.18 "Hg10 mi
4:00 AM55 °FClear.2 mph88%30.18 "Hg10 mi
Weather by CustomWeather, © 2015

See weather overviewHow to use our weather pages